Tracking 30072 objects as of 14-Jan-2025
HD Live streaming from Space Station
objects crossing your sky now

ONEWEB-0246

Track ONEWEB-0246 now!
10-day predictions
ONEWEB-0246 is classified as:


NORAD ID: 48786
Int'l Code: 2021-045V
Perigee: 1,207.7 km
Apogee: 1,210.1 km
Inclination: 87.9 °
Period: 109.5 minutes
Semi major axis: 7579 km
RCS: Unknown
Launch date: May 28, 2021
Source: United Kingdom (UK)
Launch site: VOSTOCHNY COSMODROME (VOSTO)
Your satellite tracking list
Your tracking list is empty




NASA's NSSDC Master Catalog

Two Line Element Set (TLE):
1 48786U 21045V   25013.93403597  .00000072  00000-0  15618-3 0  9999
2 48786  87.9072   2.5589 0001595  87.6705 272.4608 13.15547057176001
Source of the keplerian elements: AFSPC